sat.trackr.live / text

‹ back to catalog

STARLINK-1471

NORAD 45735 · 2020-038F

PAYLOAD ACTIVE UNKNOWN

§ Identity

Operator
Country
US
Launch date
2020-06-13
Launch site
AFETR
Launch vehicle
Mass (kg)
RCS (m²)

Purposes: comms

External: N2YO · Heavens-Above · Gunter

§ Orbital elements

Epoch: 2026-05-25T03:16:05.925216Z

Period
92.74 min
Inclination
53.0442°
Eccentricity
0.0003149
Mean motion
15.52701814 rev/d
Perigee alt
406.7 km
Apogee alt
411.0 km
Semi-major
6,787.0 km
B*
4.2162e-4
RAAN
134.6348°
Arg perigee
77.5962°
Mean anomaly
282.5399°
Rev number
32,939

§ Raw data

STARLINK-14711 45735U 20038F   26145.13617969  .00026088  00000+0  42162-3 0  99982 45735  53.0442 134.6348 0003149  77.5962 282.5399 15.52701814329394

JSON: /api/v1/satellites/45735 · /tle

For live sub-satellite position, see the globe view (requires WebGL).

§ Visibility from observer

Set your observer location to see the next 7 days of passes ≥ 10°. The values pass through the URL so the page stays shareable.

No JS? Fill the form by hand. The geolocation button needs JavaScript.